Flag for U.S.A. Weather past 2 weeks in Houston, Texas, U.S.A.

Now
62 °F

Clear.


Feels Like: 62 °F
Forecast: 62 / 81 °F
Wind: 8 mph from South

Location: Houston Hobby Airport

Current Time: Mar 29, 2015 at 1:37:52 AM

Latest Report: Mar 29, 2015 at 12:53 AM


Visibility: 10 mi

Pressure: 30.13 "Hg

Humidity: 96%

Dew point: 61 °F

Location of HoustonLocation

Historic Weather in Houston — Graph

°F

Houston temperature yesterday

Maximum temperature yesterday: 81 °F (at 3:53 PM)
Minimum temperature yesterday: 54 °F (at 6:53 AM)
Average temperature yesterday: 67 °F

Past Weeks' High & Low Weather Summary

 TemperatureHumidityPressure
High81 °F (Mar 28, 3:53 PM)100% (Mar 14, 5:53 AM)30.29 "Hg (Mar 14, 5:53 AM)
Low48 °F (Mar 27, 5:53 AM)20% (Mar 27, 3:53 PM)29.86 "Hg (Mar 26, 4:53 AM)
Average67 °F77%30.07 "Hg
* Reported Mar 13 11:53 PM — Mar 28 11:53 PM, Houston, Weather by CustomWeather, © 2015

Note: Actual official high and low records may vary slightly from our data, if they occured in-between our weather recording intervals... More about our weather records

Advertising

Houston weather history for previous 24 hours

 ConditionsComfort  
Time TempWeatherWind HumidityBarometerVisibility
11:53 PM
Sat, Mar 28
62 °FClear.5 mph93%30.13 "Hg10 mi
10:53 PM62 °FClear.5 mph86%30.14 "Hg10 mi
9:53 PM65 °FClear.7 mph68%30.13 "Hg10 mi
8:53 PM67 °FClear.8 mph53%30.12 "Hg10 mi
7:53 PM70 °FSunny.9 mph39%30.11 "Hg10 mi
6:53 PM76 °FSunny.13 mph29%30.09 "Hg10 mi
5:53 PM80 °FSunny.16 mph23%30.08 "Hg10 mi
4:53 PM81 °FSunny.18 mph27%30.08 "Hg10 mi
3:53 PM81 °FSunny.13 mph32%30.09 "Hg10 mi
2:53 PM80 °FSunny.17 mph32%30.11 "Hg10 mi
1:53 PM78 °FSunny.14 mph32%30.14 "Hg10 mi
12:53 PM76 °FSunny.8 mph33%30.17 "Hg10 mi
11:53 AM74 °FSunny.12 mph33%30.19 "Hg10 mi
10:53 AM71 °FPassing clouds.8 mph44%30.20 "Hg10 mi
9:53 AM68 °FPassing clouds.6 mph65%30.19 "Hg10 mi
8:53 AM62 °FPassing clouds.6 mph70%30.19 "Hg10 mi
7:53 AM56 °FPassing clouds.No wind72%30.18 "Hg10 mi
6:53 AM54 °FClear.No wind74%30.16 "Hg10 mi
5:53 AM56 °FClear.No wind67%30.15 "Hg10 mi
4:53 AM58 °FClear.3 mph62%30.14 "Hg10 mi
3:53 AM59 °FClear.5 mph58%30.14 "Hg10 mi
2:53 AM58 °FClear.3 mph62%30.16 "Hg10 mi
1:53 AM59 °FClear.3 mph62%30.17 "Hg10 mi
Weather by CustomWeather, © 2015

See weather overviewHow to use our weather pages